Weather History for Frankfort, KY

Change the Weather History Date:

Sunday, February 3, 2013

  Actual Average Record
Temperature  
Mean Temperature 25 °F 34 °F  
Max Temperature 30 °F 44 °F 66 °F (1924)
Min Temperature 19 °F 25 °F -11 °F (1951)
Degree Days  
Heating Degree Days 40 31  
Month to date heating degree days 132 93  
Since 1 July heating degree days 2835 2931  
Cooling Degree Days 0 0  
Month to date cooling degree days 0 0  
Year to date cooling degree days 0 0  
Moisture  
Dew Point 21 °F    
Average Humidity 74    
Maximum Humidity 85    
Minimum Humidity 63    
Precipitation  
Precipitation T in 0.11 in 1.60 in (1989)
Month to date precipitation 0.08 0.33  
Year to date precipitation 5.08 3.59  
Sea Level Pressure  
Sea Level Pressure 30.05 in    
Wind  
Wind Speed 6 mph (West)    
Max Wind Speed 14 mph    
Max Gust Speed 23 mph    
Visibility 8 miles    
Events Snow    
T = Trace of Precipitation, MM = Missing Value Source: NWS Daily Summary

Daily Weather History Graph

Daily Weather History Graph

Search for Another Location

Airport:

Trip Planner

Search our weather history database for the weather conditions in past years. The results will help you decide how hot, cold, wet, or windy it might be!

Date:

Astronomy

Feb. 03, 2013 Rise Set
Actual Time 7:42 AM EST 6:05 PM EST
Civil Twilight 7:14 AM EST 6:32 PM EST
Nautical Twilight 6:43 AM EST 7:04 PM EST
Astronomical Twilight 6:12 AM EST 7:35 PM EST
Moon 1:08 AM EST (2/3) 11:42 AM EST (2/3)
Length of Visible Light 11h 18m
Length of Day
10h 22m
Waning Gibbous, 49% of the Moon is Illuminated
Feb 3
Waning Gibbous
Feb 10
New
Feb 17
First Quarter
Feb 25
Full
Mar 4
Last Quarter

Hourly Weather History & Observations

Time (EST) Temp. Windchill Dew Point Humidity Pressure Visibility Wind Dir Wind Speed Gust Speed Precip Events Conditions
12:53 AM 28.0 °F 22.8 °F 24.1 °F 85% 30.04 in 10.0 mi SW 4.6 mph - N/A   Overcast
1:53 AM 30.0 °F 25.2 °F 24.1 °F 79% 30.04 in 10.0 mi WSW 4.6 mph - N/A   Overcast
2:53 AM 30.0 °F 23.2 °F 23.0 °F 75% 30.02 in 10.0 mi West 6.9 mph - N/A   Overcast
3:53 AM 28.9 °F - 23.0 °F 78% 30.00 in 10.0 mi Calm Calm - N/A   Overcast
4:53 AM 28.0 °F 24.2 °F 19.9 °F 72% 29.99 in 10.0 mi West 3.5 mph - N/A   Overcast
5:53 AM 27.0 °F 23.0 °F 19.9 °F 75% 29.97 in 10.0 mi West 3.5 mph - N/A   Overcast
6:53 AM 27.0 °F 21.6 °F 19.9 °F 75% 29.98 in 10.0 mi West 4.6 mph - N/A   Overcast
7:53 AM 26.1 °F 19.4 °F 19.9 °F 78% 29.99 in 9.0 mi West 5.8 mph - N/A   Overcast
8:10 AM 26.6 °F 21.2 °F 19.4 °F 74% 29.97 in 3.0 mi WNW 4.6 mph - 0.00 in Snow Light Snow
8:53 AM 26.1 °F 20.5 °F 19.9 °F 78% 30.00 in 7.0 mi Variable 4.6 mph - 0.00 in   Overcast
9:48 AM 26.6 °F 21.2 °F 19.4 °F 74% 29.98 in 1.8 mi WNW 4.6 mph - 0.00 in Snow Light Snow
9:53 AM 26.1 °F 21.9 °F 21.0 °F 81% 30.01 in 1.5 mi WNW 3.5 mph - 0.00 in Snow Light Snow
9:59 AM 26.6 °F 21.2 °F 21.2 °F 80% 29.98 in 3.0 mi WNW 4.6 mph - 0.00 in Snow Light Snow
10:53 AM 26.1 °F 18.4 °F 19.9 °F 78% 30.02 in 8.0 mi NW 6.9 mph - 0.00 in   Overcast
11:53 AM 27.0 °F 20.5 °F 21.0 °F 78% 30.02 in 7.0 mi Variable 5.8 mph - N/A   Overcast
12:45 PM 28.4 °F 23.3 °F 21.2 °F 74% 30.00 in 8.0 mi WNW 4.6 mph - N/A   Overcast
12:53 PM 28.0 °F 21.7 °F 21.9 °F 78% 30.03 in 8.0 mi West 5.8 mph - N/A   Overcast
1:53 PM 28.0 °F 18.6 °F 23.0 °F 81% 30.04 in 9.0 mi West 10.4 mph - N/A   Overcast
2:03 PM 28.4 °F 21.2 °F 23.0 °F 80% 30.02 in 8.0 mi WNW 6.9 mph - N/A   Overcast
2:53 PM 28.0 °F 20.8 °F 24.1 °F 85% 30.06 in 6.0 mi WNW 6.9 mph - N/A   Overcast
3:48 PM 28.4 °F 17.5 °F 23.0 °F 80% 30.06 in 5.0 mi West 13.8 mph 21.9 mph N/A   Haze
3:53 PM 28.9 °F 21.1 °F 23.0 °F 78% 30.09 in 5.0 mi West 8.1 mph 19.6 mph N/A   Haze
4:15 PM 28.4 °F 19.7 °F 21.2 °F 74% 30.07 in 8.0 mi WNW 9.2 mph 16.1 mph 0.00 in   Overcast
4:53 PM 28.0 °F 16.5 °F 19.9 °F 72% 30.11 in 10.0 mi WNW 15.0 mph 23.0 mph 0.00 in   Overcast
5:53 PM 28.0 °F 20.0 °F 21.0 °F 75% 30.12 in 7.0 mi West 8.1 mph - 0.00 in Snow Light Snow
6:53 PM 27.0 °F 21.6 °F 21.9 °F 81% 30.13 in 9.0 mi West 4.6 mph - 0.00 in   Overcast
7:53 PM 28.0 °F 22.8 °F 21.0 °F 75% 30.15 in 10.0 mi West 4.6 mph - N/A   Overcast
8:53 PM 27.0 °F 20.5 °F 15.1 °F 61% 30.17 in 10.0 mi West 5.8 mph - N/A   Scattered Clouds
9:53 PM 26.1 °F 20.5 °F 16.0 °F 66% 30.17 in 10.0 mi WNW 4.6 mph - N/A   Scattered Clouds
10:53 PM 19.9 °F - 15.1 °F 81% 30.16 in 10.0 mi Calm Calm - N/A   Clear
11:53 PM 19.9 °F 14.9 °F 15.1 °F 81% 30.16 in 10.0 mi SW 3.5 mph - N/A   Clear